This is the latest recevied weather packets stored in our database for station/object DL1EEM-L4. If no packets are shown the sender has not sent any weather packets the latest 10 day(s).
| Time | Temp. | Humidity | Pressure | Rain* | Wind** | Luminosity | Snow |
|---|---|---|---|---|---|---|---|
| 1777797061 | 18.89° C | 62% | 1009.1 hPa | - | - | - | - |
| 1777796161 | 18.89° C | 65% | 1009.3 hPa | - | - | - | - |
| 1777795261 | 17.78° C | 68% | 1009.1 hPa | - | - | - | - |
| 1777794353 | 17.78° C | 68% | 1009.2 hPa | - | - | - | - |
| 1777793453 | 17.78° C | 68% | 1009.2 hPa | - | - | - | - |
| 1777792553 | 17.78° C | 69% | 1009.3 hPa | - | - | - | - |
| 1777791652 | 17.22° C | 70% | 1009.4 hPa | - | - | - | - |
| 1777790751 | 17.22° C | 69% | 1009.2 hPa | - | - | - | - |
| 1777789851 | 16.67° C | 71% | 1009.5 hPa | - | - | - | - |
| 1777788951 | 16.67° C | 72% | 1009.5 hPa | - | - | - | - |
| 1777788051 | 16.67° C | 69% | 1009.4 hPa | - | - | - | - |
| 1777787151 | 17.22° C | 66% | 1009.3 hPa | - | - | - | - |
| 1777785350 | 16.11° C | 71% | 1009.3 hPa | - | - | - | - |
| 1777784449 | 15.56° C | 74% | 1009.2 hPa | - | - | - | - |
| 1777740362 | 25.56° C | 35% | 1012.4 hPa | - | - | - | - |
| 1777739462 | 26.11° C | 33% | 1012.4 hPa | - | - | - | - |
| 1777738562 | 26.67° C | 31% | 1012.4 hPa | - | - | - | - |
| 1777737661 | 27.22° C | 30% | 1012.5 hPa | - | - | - | - |
| 1777736761 | 26.67° C | 30% | 1012.4 hPa | - | - | - | - |
| 1777735861 | 27.78° C | 29% | 1012.4 hPa | - | - | - | - |
| 1777734961 | 27.78° C | 28% | 1012.5 hPa | - | - | - | - |
| 1777734061 | 28.33° C | 27% | 1012.5 hPa | - | - | - | - |
| 1777733161 | 29.44° C | 25% | 1012.7 hPa | - | - | - | - |
| 1777732261 | 28.89° C | 25% | 1012.8 hPa | - | - | - | - |
| 1777731361 | 29.44° C | 25% | 1013 hPa | - | - | - | - |
* Rain since midnight (hover to see other rain measurements)
** Current wind speed in m/s (hover to see current wind gust speed)